Time,TemperatureF,DewpointF,PressureIn,WindDirection,WindDirectionDegrees,WindSpeedMPH,WindSpeedGustMPH,Humidity,HourlyPrecipIn,Conditions,Clouds,dailyrainin,SoftwareType,DateUTC
2013-02-16 00:02:00,30.0,25.0,29.90,North,0,0.0,0.0,83,0.00,,,0.00,,2013-02-16 05:02:00,
2013-02-16 00:12:00,30.0,25.0,29.90,North,0,0.0,0.0,83,0.00,,,0.00,,2013-02-16 05:12:00,
2013-02-16 00:22:00,30.0,25.0,29.90,North,0,0.0,0.0,83,0.00,,,0.00,,2013-02-16 05:22:00,
2013-02-16 00:32:00,30.0,25.0,29.90,North,0,0.0,0.0,83,0.00,,,0.00,,2013-02-16 05:32:00,
2013-02-16 00:42:00,30.0,25.0,29.90,North,0,0.0,0.0,83,0.00,,,0.00,,2013-02-16 05:42:00,
2013-02-16 01:02:00,32.0,27.0,29.90,North,0,0.0,0.0,83,0.00,,,0.00,,2013-02-16 06:02:00,
2013-02-16 01:11:00,32.0,27.0,29.90,North,0,0.0,0.0,83,0.00,,,0.00,,2013-02-16 06:11:00,
2013-02-16 01:22:00,32.0,27.0,29.90,North,0,0.0,0.0,83,0.00,,,0.00,,2013-02-16 06:22:00,
2013-02-16 01:32:00,32.0,27.0,29.90,North,0,0.0,0.0,83,0.00,,,0.00,,2013-02-16 06:32:00,
2013-02-16 01:42:00,32.0,27.0,29.90,North,0,0.0,0.0,83,0.00,,,0.00,,2013-02-16 06:42:00,
2013-02-16 02:02:00,33.0,28.0,29.90,North,0,0.0,0.0,83,0.00,,,0.00,,2013-02-16 07:02:00,
2013-02-16 02:11:00,33.0,28.0,29.90,North,0,0.0,0.0,83,0.00,,,0.00,,2013-02-16 07:11:00,
2013-02-16 02:22:00,33.0,28.0,29.90,North,0,0.0,0.0,83,0.00,,,0.00,,2013-02-16 07:22:00,
2013-02-16 02:32:00,33.0,28.0,29.90,North,0,0.0,0.0,83,0.00,,,0.00,,2013-02-16 07:32:00,
2013-02-16 02:42:00,33.0,28.0,29.90,North,0,0.0,0.0,83,0.00,,,0.00,,2013-02-16 07:42:00,
2013-02-16 03:01:00,33.0,28.0,29.90,WNW,292,1.0,2.0,83,0.00,,,0.00,,2013-02-16 08:01:00,
2013-02-16 03:11:00,33.0,28.0,29.90,WNW,292,1.0,2.0,83,0.00,,,0.00,,2013-02-16 08:11:00,
2013-02-16 03:22:00,33.0,28.0,29.90,WNW,292,1.0,2.0,83,0.00,,,0.00,,2013-02-16 08:22:00,
2013-02-16 03:32:00,33.0,28.0,29.91,NNW,338,2.0,6.0,81,0.00,,,0.00,,2013-02-16 08:32:00,
2013-02-16 03:42:00,33.0,28.0,29.91,NNW,338,2.0,6.0,81,0.00,,,0.00,,2013-02-16 08:42:00,
2013-02-16 03:52:00,33.0,28.0,29.91,NNW,338,2.0,6.0,81,0.00,,,0.00,,2013-02-16 08:52:00,
2013-02-16 04:02:00,32.0,27.0,29.90,NE,45,1.0,3.0,83,0.00,,,0.00,,2013-02-16 09:02:00,
2013-02-16 04:11:00,32.0,27.0,29.90,NE,45,1.0,3.0,83,0.00,,,0.00,,2013-02-16 09:11:00,
2013-02-16 04:21:00,32.0,27.0,29.90,NE,45,1.0,3.0,83,0.00,,,0.00,,2013-02-16 09:21:00,
2013-02-16 04:32:00,32.0,28.0,29.89,NW,315,0.0,1.0,84,0.00,,,0.00,,2013-02-16 09:32:00,
2013-02-16 04:42:00,32.0,28.0,29.89,NW,315,0.0,1.0,84,0.00,,,0.00,,2013-02-16 09:42:00,
2013-02-16 04:52:00,32.0,28.0,29.89,NW,315,0.0,1.0,84,0.00,,,0.00,,2013-02-16 09:52:00,
2013-02-16 05:01:00,32.0,28.0,29.89,NW,315,0.0,1.0,84,0.00,,,0.00,,2013-02-16 10:01:00,
2013-02-16 05:32:00,31.0,27.0,29.90,NNW,338,0.0,1.0,84,0.00,,,0.00,,2013-02-16 10:32:00,
2013-02-16 05:42:00,31.0,27.0,29.90,NNW,338,0.0,1.0,84,0.00,,,0.00,,2013-02-16 10:42:00,
2013-02-16 05:52:00,31.0,27.0,29.90,NNW,338,0.0,1.0,84,0.00,,,0.00,,2013-02-16 10:52:00,
2013-02-16 06:02:00,31.0,27.0,29.89,NNE,22,0.0,0.0,84,0.00,,,0.00,,2013-02-16 11:02:00,
2013-02-16 06:11:00,31.0,27.0,29.89,NNE,22,0.0,0.0,84,0.00,,,0.00,,2013-02-16 11:11:00,
2013-02-16 06:22:00,31.0,27.0,29.89,NNE,22,0.0,0.0,84,0.00,,,0.00,,2013-02-16 11:22:00,
2013-02-16 06:32:00,31.0,27.0,29.88,NNW,338,0.0,0.0,84,0.00,,,0.00,,2013-02-16 11:32:00,
2013-02-16 06:42:00,31.0,27.0,29.88,NNW,338,0.0,0.0,84,0.00,,,0.00,,2013-02-16 11:42:00,
2013-02-16 06:52:00,31.0,27.0,29.88,NNW,338,0.0,0.0,84,0.00,,,0.00,,2013-02-16 11:52:00,
2013-02-16 07:02:00,31.0,27.0,29.88,SW,225,0.0,0.0,84,0.00,,,0.00,,2013-02-16 12:02:00,
2013-02-16 07:12:00,31.0,27.0,29.88,SW,225,0.0,0.0,84,0.00,,,0.00,,2013-02-16 12:12:00,
2013-02-16 07:22:00,31.0,27.0,29.88,SW,225,0.0,0.0,84,0.00,,,0.00,,2013-02-16 12:22:00,
2013-02-16 07:32:00,31.0,27.0,29.89,NW,315,0.0,1.0,84,0.00,,,0.00,,2013-02-16 12:32:00,
2013-02-16 07:42:00,31.0,27.0,29.89,NW,315,0.0,1.0,84,0.00,,,0.00,,2013-02-16 12:42:00,
2013-02-16 07:52:00,31.0,27.0,29.89,NW,315,0.0,1.0,84,0.00,,,0.00,,2013-02-16 12:52:00,
2013-02-16 08:02:00,31.0,27.0,29.89,NW,315,0.0,1.0,84,0.00,,,0.00,,2013-02-16 13:02:00,
2013-02-16 08:12:00,31.0,27.0,29.89,NW,315,0.0,1.0,84,0.00,,,0.00,,2013-02-16 13:12:00,
2013-02-16 08:32:00,32.0,28.0,29.93,NW,315,0.0,0.0,84,0.00,,,0.00,,2013-02-16 13:32:00,
2013-02-16 08:42:00,32.0,28.0,29.93,NW,315,0.0,0.0,84,0.00,,,0.00,,2013-02-16 13:42:00,
2013-02-16 08:52:00,32.0,28.0,29.93,NW,315,0.0,0.0,84,0.00,,,0.00,,2013-02-16 13:52:00,
2013-02-16 09:01:00,33.0,28.0,29.98,NNW,338,0.0,1.0,82,0.00,,,0.00,,2013-02-16 14:01:00,
2013-02-16 09:11:00,33.0,28.0,29.98,NNW,338,0.0,1.0,82,0.00,,,0.00,,2013-02-16 14:11:00,
2013-02-16 09:21:00,33.0,28.0,29.98,NNW,338,0.0,1.0,82,0.00,,,0.00,,2013-02-16 14:21:00,
2013-02-16 09:32:00,34.0,29.0,29.97,NNW,338,0.0,0.0,82,0.00,,,0.00,,2013-02-16 14:32:00,
2013-02-16 09:42:00,34.0,29.0,29.97,NNW,338,0.0,0.0,82,0.00,,,0.00,,2013-02-16 14:42:00,
2013-02-16 09:52:00,34.0,29.0,29.97,NNW,338,0.0,0.0,82,0.00,,,0.00,,2013-02-16 14:52:00,
2013-02-16 10:02:00,36.0,31.0,29.96,NNE,22,0.0,1.0,81,0.00,,,0.00,,2013-02-16 15:02:00,
2013-02-16 10:11:00,36.0,31.0,29.96,NNE,22,0.0,1.0,81,0.00,,,0.00,,2013-02-16 15:11:00,
2013-02-16 10:22:00,36.0,31.0,29.96,NNE,22,0.0,1.0,81,0.00,,,0.00,,2013-02-16 15:22:00,
2013-02-16 10:32:00,36.0,30.0,29.96,NE,45,0.0,2.0,79,0.00,,,0.00,,2013-02-16 15:32:00,
2013-02-16 10:42:00,36.0,30.0,29.96,NE,45,0.0,2.0,79,0.00,,,0.00,,2013-02-16 15:42:00,
2013-02-16 10:52:00,36.0,30.0,29.96,NE,45,0.0,2.0,79,0.00,,,0.00,,2013-02-16 15:52:00,
2013-02-16 11:02:00,37.0,30.0,29.97,East,90,1.0,5.0,76,0.00,,,0.00,,2013-02-16 16:02:00,
2013-02-16 11:11:00,37.0,30.0,29.97,East,90,1.0,5.0,76,0.00,,,0.00,,2013-02-16 16:11:00,
2013-02-16 11:22:00,37.0,30.0,29.97,East,90,1.0,5.0,76,0.00,,,0.00,,2013-02-16 16:22:00,
2013-02-16 11:32:00,37.0,29.0,29.95,East,90,1.0,3.0,74,0.00,,,0.00,,2013-02-16 16:32:00,
2013-02-16 11:42:00,37.0,29.0,29.95,East,90,1.0,3.0,74,0.00,,,0.00,,2013-02-16 16:42:00,
2013-02-16 11:52:00,37.0,29.0,29.95,East,90,1.0,3.0,74,0.00,,,0.00,,2013-02-16 16:52:00,
2013-02-16 12:01:00,37.0,29.0,29.95,East,90,1.0,3.0,74,0.00,,,0.00,,2013-02-16 17:01:00,
2013-02-16 12:32:00,37.0,28.0,29.92,NNE,22,1.0,5.0,71,0.01,,,0.01,,2013-02-16 17:32:00,
2013-02-16 12:42:00,37.0,28.0,29.92,NNE,22,1.0,5.0,71,0.01,,,0.01,,2013-02-16 17:42:00,
2013-02-16 12:52:00,37.0,28.0,29.92,NNE,22,1.0,5.0,71,0.01,,,0.01,,2013-02-16 17:52:00,
2013-02-16 13:02:00,37.0,28.0,29.92,NNE,22,1.0,5.0,71,0.01,,,0.01,,2013-02-16 18:02:00,
2013-02-16 13:11:00,37.0,28.0,29.92,NNE,22,1.0,5.0,71,0.01,,,0.01,,2013-02-16 18:11:00,
2013-02-16 13:33:00,38.0,30.0,29.91,NNE,22,1.0,2.0,72,0.03,,,0.03,,2013-02-16 18:33:00,
2013-02-16 13:42:00,38.0,30.0,29.91,NNE,22,1.0,2.0,72,0.03,,,0.03,,2013-02-16 18:42:00,
2013-02-16 13:52:00,38.0,30.0,29.91,NNE,22,1.0,2.0,72,0.03,,,0.03,,2013-02-16 18:52:00,
2013-02-16 14:02:00,39.0,31.0,29.90,WSW,248,1.0,2.0,72,0.01,,,0.03,,2013-02-16 19:02:00,
2013-02-16 14:11:00,39.0,31.0,29.90,WSW,248,1.0,2.0,72,0.01,,,0.03,,2013-02-16 19:11:00,
2013-02-16 14:22:00,39.0,31.0,29.90,WSW,248,1.0,2.0,72,0.01,,,0.03,,2013-02-16 19:22:00,
2013-02-16 14:32:00,38.0,29.0,29.89,SW,225,1.0,5.0,69,0.00,,,0.03,,2013-02-16 19:32:00,
2013-02-16 14:42:00,38.0,29.0,29.89,SW,225,1.0,5.0,69,0.00,,,0.03,,2013-02-16 19:42:00,
2013-02-16 14:52:00,38.0,29.0,29.89,SW,225,1.0,5.0,69,0.00,,,0.03,,2013-02-16 19:52:00,
2013-02-16 15:01:00,38.0,28.0,29.88,NNW,338,1.0,3.0,68,0.00,,,0.03,,2013-02-16 20:01:00,
2013-02-16 15:11:00,38.0,28.0,29.88,NNW,338,1.0,3.0,68,0.00,,,0.03,,2013-02-16 20:11:00,
2013-02-16 15:22:00,38.0,28.0,29.88,NNW,338,1.0,3.0,68,0.00,,,0.03,,2013-02-16 20:22:00,
2013-02-16 15:32:00,38.0,29.0,29.88,East,90,1.0,3.0,69,0.00,,,0.03,,2013-02-16 20:32:00,
2013-02-16 15:42:00,38.0,29.0,29.88,East,90,1.0,3.0,69,0.00,,,0.03,,2013-02-16 20:42:00,
2013-02-16 15:52:00,38.0,29.0,29.88,East,90,1.0,3.0,69,0.00,,,0.03,,2013-02-16 20:52:00,
2013-02-16 16:02:00,38.0,28.0,29.87,NE,45,1.0,2.0,68,0.00,,,0.03,,2013-02-16 21:02:00,
2013-02-16 16:11:00,38.0,28.0,29.87,NE,45,1.0,2.0,68,0.00,,,0.03,,2013-02-16 21:11:00,
2013-02-16 16:21:00,38.0,28.0,29.87,NE,45,1.0,2.0,68,0.00,,,0.03,,2013-02-16 21:21:00,
2013-02-16 16:32:00,38.0,28.0,29.87,NE,45,1.0,2.0,68,0.00,,,0.03,,2013-02-16 21:32:00,
2013-02-16 16:42:00,38.0,28.0,29.87,NE,45,1.0,2.0,68,0.00,,,0.03,,2013-02-16 21:42:00,
2013-02-16 17:01:00,35.0,24.0,29.78,NNW,338,0.0,2.0,65,0.00,,,0.03,,2013-02-16 22:01:00,
2013-02-16 17:11:00,35.0,24.0,29.78,NNW,338,0.0,2.0,65,0.00,,,0.03,,2013-02-16 22:11:00,
2013-02-16 17:22:00,35.0,24.0,29.78,NNW,338,0.0,2.0,65,0.00,,,0.03,,2013-02-16 22:22:00,
2013-02-16 17:32:00,35.0,25.0,29.78,SW,225,0.0,1.0,66,0.00,,,0.03,,2013-02-16 22:32:00,
2013-02-16 17:42:00,35.0,25.0,29.78,SW,225,0.0,1.0,66,0.00,,,0.03,,2013-02-16 22:42:00,
2013-02-16 17:52:00,35.0,25.0,29.78,SW,225,0.0,1.0,66,0.00,,,0.03,,2013-02-16 22:52:00,
2013-02-16 18:02:00,34.0,25.0,29.80,WNW,292,0.0,1.0,69,0.00,,,0.03,,2013-02-16 23:02:00,
2013-02-16 18:11:00,34.0,25.0,29.80,WNW,292,0.0,1.0,69,0.00,,,0.03,,2013-02-16 23:11:00,
2013-02-16 18:21:00,34.0,25.0,29.80,WNW,292,0.0,1.0,69,0.00,,,0.03,,2013-02-16 23:21:00,
2013-02-16 18:32:00,33.0,23.0,29.80,West,270,0.0,2.0,66,0.00,,,0.03,,2013-02-16 23:32:00,
2013-02-16 18:42:00,33.0,23.0,29.80,West,270,0.0,2.0,66,0.00,,,0.03,,2013-02-16 23:42:00,
2013-02-16 18:52:00,33.0,23.0,29.80,West,270,0.0,2.0,66,0.00,,,0.03,,2013-02-16 23:52:00,
2013-02-16 19:02:00,33.0,23.0,29.80,SSE,158,1.0,5.0,66,0.00,,,0.03,,2013-02-17 00:02:00,
2013-02-16 19:12:00,33.0,23.0,29.80,SSE,158,1.0,5.0,66,0.00,,,0.03,,2013-02-17 00:12:00,
2013-02-16 19:22:00,33.0,23.0,29.80,SSE,158,1.0,5.0,66,0.00,,,0.03,,2013-02-17 00:22:00,
2013-02-16 19:32:00,33.0,24.0,29.79,NNW,338,0.0,2.0,68,0.00,,,0.03,,2013-02-17 00:32:00,
2013-02-16 19:42:00,33.0,24.0,29.79,NNW,338,0.0,2.0,68,0.00,,,0.03,,2013-02-17 00:42:00,
2013-02-16 19:52:00,33.0,24.0,29.79,NNW,338,0.0,2.0,68,0.00,,,0.03,,2013-02-17 00:52:00,
2013-02-16 20:01:00,32.0,22.0,29.78,NNW,338,1.0,2.0,66,0.00,,,0.03,,2013-02-17 01:01:00,
2013-02-16 20:11:00,32.0,22.0,29.78,NNW,338,1.0,2.0,66,0.00,,,0.03,,2013-02-17 01:11:00,
2013-02-16 20:21:00,32.0,22.0,29.78,NNW,338,1.0,2.0,66,0.00,,,0.03,,2013-02-17 01:21:00,
2013-02-16 20:32:00,32.0,21.0,29.78,NE,45,2.0,5.0,64,0.00,,,0.03,,2013-02-17 01:32:00,
2013-02-16 20:42:00,32.0,21.0,29.78,NE,45,2.0,5.0,64,0.00,,,0.03,,2013-02-17 01:42:00,
2013-02-16 20:52:00,32.0,21.0,29.78,NE,45,2.0,5.0,64,0.00,,,0.03,,2013-02-17 01:52:00,
2013-02-16 21:01:00,32.0,21.0,29.78,NE,45,2.0,5.0,64,0.00,,,0.03,,2013-02-17 02:01:00,
2013-02-16 21:32:00,31.0,20.0,29.76,SW,225,1.0,3.0,63,0.00,,,0.03,,2013-02-17 02:32:00,
2013-02-16 21:42:00,31.0,20.0,29.76,SW,225,1.0,3.0,63,0.00,,,0.03,,2013-02-17 02:42:00,
2013-02-16 21:52:00,31.0,20.0,29.76,SW,225,1.0,3.0,63,0.00,,,0.03,,2013-02-17 02:52:00,
2013-02-16 22:02:00,30.0,19.0,29.76,SE,135,1.0,3.0,63,0.00,,,0.03,,2013-02-17 03:02:00,
2013-02-16 22:11:00,30.0,19.0,29.76,SE,135,1.0,3.0,63,0.00,,,0.03,,2013-02-17 03:11:00,
2013-02-16 22:21:00,30.0,19.0,29.76,SE,135,1.0,3.0,63,0.00,,,0.03,,2013-02-17 03:21:00,
2013-02-16 22:32:00,30.0,19.0,29.75,WSW,248,2.0,5.0,64,0.00,,,0.03,,2013-02-17 03:32:00,
2013-02-16 22:42:00,30.0,19.0,29.75,WSW,248,2.0,5.0,64,0.00,,,0.03,,2013-02-17 03:42:00,
2013-02-16 22:52:00,30.0,19.0,29.75,WSW,248,2.0,5.0,64,0.00,,,0.03,,2013-02-17 03:52:00,
2013-02-16 23:01:00,30.0,19.0,29.75,WSW,248,2.0,5.0,64,0.00,,,0.03,,2013-02-17 04:01:00,
2013-02-16 23:32:00,28.0,21.0,29.71,SSE,158,1.0,5.0,74,0.00,,,0.03,,2013-02-17 04:32:00,
2013-02-16 23:42:00,28.0,21.0,29.71,SSE,158,1.0,5.0,74,0.00,,,0.03,,2013-02-17 04:42:00,
2013-02-16 23:52:00,28.0,21.0,29.71,SSE,158,1.0,5.0,74,0.00,,,0.03,,2013-02-17 04:52:00,